IRIDIUM 33 DEB, 35744

Orbit data source: Space-Track

IRIDIUM 33 DEB, 35744 is space debris in LEO originally from a launch on Sun, 14 Sep 1997 UTC launched from the Tyuratam Missile And Space Complex (TTMTR). The debris from Iridium 33, an American commercial communications satellite, has been tracked extensively since its accidental collision with the defunct Russian satellite Cosmos 2251 in 2009. This event, occurring at high speed in low Earth orbit (LEO), generated thousands of pieces of space debris, significantly increasing the risk of further collisions. The Iridium 33 debris cloud has impacted space traffic management and orbital debris mitigation strategies, making it a subject of ongoing study in space situational awareness.

Loading next visibility...
Identifier
35744, 1997-051RX
Orbit
LEO
Country
Flag of USUS
Related business
Manufacturer
Unknown
Mission
Spacecraft
Bus & Motor
Unknown
Mass
Unknown
Launch date (UTC)
1997-09-14 (29 years ago)
Launch vehicle
Unknown
Launch site
Tyuratam Missile And Space Complex (TTMTR)
Object type
Payload
Rocket body
Debris
Shape & HBR
Unknown shape, 0.1 m
Radar Cross Section
Small (<0.1 m²)

Expand to show TLE details & history
Last TLE update: 1 day ago

TLE from 1 day ago
0 IRIDIUM 33 DEB
1 35744U 97051RX  26132.62787775  .00003364  00000-0  51621-3 0  9992
2 35744  86.3269 257.1049 0021085  43.8109 316.4776 14.73181035895513
Epoch: 2026-05-12T15:04Z
TLE epoch observation values (Epoch: 2026-05-12T15:04:08.637Z)
Latitude
-0.00005°
Longitude
160.66938°
Altitude
643.302 km
Speed
7.542 km/s
True Right ascension
17h 08m 25s
True Declination
0° 00' 00"
Sunlit
Object was in full shadow at epoch
Visualization orbit readout
Latitude
Unknown
Longitude
Unknown
Altitude
Unknown
Speed
Unknown
Apparent Right ascension
Unknown
Apparent Declination
Unknown
Sunlit
N/A
Visualization observer readout
Local Sidereal Time
06:53:00
Azimuth
Unknown
Elevation
Unknown
Doppler factor
Unknown
Orbital elements
Apogee altitude
662.657 km
Perigee altitude
633.028 km
Semi-major axis
7,025.979 km
Eccentricity
0.00211
Inclination
86.3269°
RAAN
257.1049°
Arg. of periapsis
43.8109°
True anomaly
316.3109°
Mean anomaly
316.4776°
Eccentric anomaly
316.39428°
Mean motion
3.68539 °/min
Orbital period
97.68 mins
BSTAR
0.00051621
Loading maneuver chart data...
Computing Atmospheric mass density...

Documentation

Showing up to 5 results
|